Time,TemperatureF,DewpointF,PressureIn,WindDirection,WindDirectionDegrees,WindSpeedMPH,WindSpeedGustMPH,Humidity,HourlyPrecipIn,Conditions,Clouds,dailyrainin,SoftwareType,DateUTC
2013-01-25 00:10:00,6.3,0.7,30.38,ESE,112,0.0,-999.0,77,-99.99,,,0.00,Acu-Link.com,2013-01-25 05:10:00,
2013-01-25 00:25:00,6.3,0.7,30.38,ESE,112,0.0,-999.0,77,-99.99,,,0.00,Acu-Link.com,2013-01-25 05:25:00,
2013-01-25 00:40:00,5.4,0.1,30.38,SSW,202,0.0,-999.0,78,-99.99,,,0.00,Acu-Link.com,2013-01-25 05:40:00,
2013-01-25 00:55:00,5.2,0.1,30.37,SE,135,0.0,-999.0,79,-99.99,,,0.00,Acu-Link.com,2013-01-25 05:55:00,
2013-01-25 01:10:00,4.6,0.1,30.37,ESE,112,0.0,-999.0,81,-99.99,,,0.00,Acu-Link.com,2013-01-25 06:10:00,
2013-01-25 01:26:00,4.8,0.5,30.37,NNE,22,0.0,-999.0,82,-99.99,,,0.00,Acu-Link.com,2013-01-25 06:26:00,
2013-01-25 01:41:00,4.8,0.3,30.36,ENE,67,0.0,-999.0,81,-99.99,,,0.00,Acu-Link.com,2013-01-25 06:41:00,
2013-01-25 01:56:00,4.3,0.8,30.36,NNE,22,0.0,-999.0,85,-99.99,,,0.00,Acu-Link.com,2013-01-25 06:56:00,
2013-01-25 02:11:00,4.6,1.1,30.36,WNW,292,0.0,-999.0,85,-99.99,,,0.00,Acu-Link.com,2013-01-25 07:11:00,
2013-01-25 02:26:00,4.1,0.6,30.36,ESE,112,0.0,-999.0,85,-99.99,,,0.00,Acu-Link.com,2013-01-25 07:26:00,
2013-01-25 02:41:00,3.6,0.4,30.37,WSW,247,0.0,-999.0,86,-99.99,,,0.00,Acu-Link.com,2013-01-25 07:41:00,
2013-01-25 02:56:00,3.7,0.7,30.37,ENE,67,0.0,-999.0,87,-99.99,,,0.00,Acu-Link.com,2013-01-25 07:56:00,
2013-01-25 03:11:00,4.1,1.1,30.36,East,90,0.0,-999.0,87,-99.99,,,0.00,Acu-Link.com,2013-01-25 08:11:00,
2013-01-25 03:26:00,4.5,1.5,30.36,South,180,0.0,-999.0,87,-99.99,,,0.00,Acu-Link.com,2013-01-25 08:26:00,
2013-01-25 03:41:00,4.3,0.8,30.37,East,90,0.0,-999.0,85,-99.99,,,0.00,Acu-Link.com,2013-01-25 08:41:00,
2013-01-25 03:57:00,4.8,1.8,30.37,East,90,0.0,-999.0,87,-99.99,,,0.00,Acu-Link.com,2013-01-25 08:57:00,
2013-01-25 04:16:00,4.8,1.6,30.36,ESE,112,0.0,-999.0,86,-99.99,,,0.00,Acu-Link.com,2013-01-25 09:16:00,
2013-01-25 04:31:00,4.8,1.8,30.36,WNW,292,0.0,-999.0,87,-99.99,,,0.00,Acu-Link.com,2013-01-25 09:31:00,
2013-01-25 04:46:00,5.0,1.7,30.35,ESE,112,0.0,-999.0,86,-99.99,,,0.00,Acu-Link.com,2013-01-25 09:46:00,
2013-01-25 05:01:00,5.7,2.2,30.35,ESE,112,0.0,-999.0,85,-99.99,,,0.00,Acu-Link.com,2013-01-25 10:01:00,
2013-01-25 05:16:00,5.7,2.2,30.33,NNE,22,0.0,-999.0,85,-99.99,,,0.00,Acu-Link.com,2013-01-25 10:16:00,
2013-01-25 05:31:00,5.9,2.6,30.34,ESE,112,0.0,-999.0,86,-99.99,,,0.00,Acu-Link.com,2013-01-25 10:31:00,
2013-01-25 05:46:00,6.4,3.1,30.34,SSE,157,0.0,-999.0,86,-99.99,,,0.00,Acu-Link.com,2013-01-25 10:46:00,
2013-01-25 06:01:00,6.8,3.3,30.34,South,180,0.0,-999.0,85,-99.99,,,0.00,Acu-Link.com,2013-01-25 11:01:00,
2013-01-25 06:17:00,6.8,3.3,30.32,ESE,112,0.0,-999.0,85,-99.99,,,0.00,Acu-Link.com,2013-01-25 11:17:00,
2013-01-25 06:32:00,7.0,3.5,30.31,ESE,112,0.0,-999.0,85,-99.99,,,0.00,Acu-Link.com,2013-01-25 11:32:00,
2013-01-25 06:47:00,7.0,3.5,30.31,SSE,157,0.0,-999.0,85,-99.99,,,0.00,Acu-Link.com,2013-01-25 11:47:00,
2013-01-25 07:02:00,7.0,3.2,30.31,West,270,0.0,-999.0,84,-99.99,,,0.00,Acu-Link.com,2013-01-25 12:02:00,
2013-01-25 07:17:00,7.0,3.2,30.31,WNW,292,0.0,-999.0,84,-99.99,,,0.00,Acu-Link.com,2013-01-25 12:17:00,
2013-01-25 07:32:00,7.0,3.2,30.31,WSW,247,0.0,-999.0,84,-99.99,,,0.00,Acu-Link.com,2013-01-25 12:32:00,
2013-01-25 07:47:00,7.7,3.9,30.31,SE,135,1.1,-999.0,84,-99.99,,,0.00,Acu-Link.com,2013-01-25 12:47:00,
2013-01-25 08:02:00,7.9,3.8,30.30,West,270,2.7,-999.0,83,-99.99,,,0.00,Acu-Link.com,2013-01-25 13:02:00,
2013-01-25 08:17:00,8.4,4.1,30.29,West,270,0.0,-999.0,82,-99.99,,,0.00,Acu-Link.com,2013-01-25 13:17:00,
2013-01-25 08:33:00,9.0,4.4,30.28,SSW,202,0.0,-999.0,81,-99.99,,,0.00,Acu-Link.com,2013-01-25 13:33:00,
2013-01-25 08:48:00,9.7,4.2,30.28,East,90,0.0,-999.0,78,-99.99,,,0.00,Acu-Link.com,2013-01-25 13:48:00,
2013-01-25 09:03:00,10.8,4.5,30.27,SSW,202,0.0,-999.0,75,-99.99,,,0.00,Acu-Link.com,2013-01-25 14:03:00,
2013-01-25 09:18:00,11.3,4.4,30.27,NE,45,0.0,-999.0,73,-99.99,,,0.00,Acu-Link.com,2013-01-25 14:18:00,
2013-01-25 09:33:00,11.3,3.8,30.26,West,270,0.0,-999.0,71,-99.99,,,0.00,Acu-Link.com,2013-01-25 14:33:00,
2013-01-25 09:48:00,11.5,3.0,30.26,WSW,247,1.7,-999.0,68,-99.99,,,0.00,Acu-Link.com,2013-01-25 14:48:00,
2013-01-25 10:03:00,12.7,2.5,30.25,NNE,22,0.0,-999.0,63,-99.99,,,0.00,Acu-Link.com,2013-01-25 15:03:00,
2013-01-25 10:18:00,14.2,2.5,30.25,NNW,337,0.0,-999.0,59,-99.99,,,0.00,Acu-Link.com,2013-01-25 15:18:00,
2013-01-25 10:33:00,14.9,2.8,30.24,NNW,337,2.2,-999.0,58,-99.99,,,0.00,Acu-Link.com,2013-01-25 15:33:00,
2013-01-25 10:49:00,14.5,2.5,30.24,East,90,1.1,-999.0,58,-99.99,,,0.00,Acu-Link.com,2013-01-25 15:49:00,
2013-01-25 11:04:00,15.1,2.3,30.24,SSE,157,0.0,-999.0,56,-99.99,,,0.00,Acu-Link.com,2013-01-25 16:04:00,
2013-01-25 11:19:00,15.6,3.1,30.22,West,270,3.7,-999.0,57,-99.99,,,0.00,Acu-Link.com,2013-01-25 16:19:00,
2013-01-25 11:34:00,14.4,2.4,30.20,South,180,1.7,-999.0,58,-99.99,,,0.00,Acu-Link.com,2013-01-25 16:34:00,
2013-01-25 11:49:00,15.4,2.5,30.18,West,270,2.7,-999.0,56,-99.99,,,0.00,Acu-Link.com,2013-01-25 16:49:00,
2013-01-25 12:04:00,15.8,2.9,30.16,WNW,292,2.2,-999.0,56,-99.99,,,0.00,Acu-Link.com,2013-01-25 17:04:00,
2013-01-25 12:19:00,17.2,3.4,30.15,NE,45,2.2,-999.0,54,-99.99,,,0.00,Acu-Link.com,2013-01-25 17:19:00,
2013-01-25 12:34:00,16.7,3.8,30.13,ENE,67,2.7,-999.0,56,-99.99,,,0.00,Acu-Link.com,2013-01-25 17:34:00,
2013-01-25 12:49:00,16.2,3.7,30.12,SE,135,4.2,-999.0,57,-99.99,,,0.00,Acu-Link.com,2013-01-25 17:49:00,
2013-01-25 13:05:00,16.2,4.1,30.10,ESE,112,0.0,-999.0,58,-99.99,,,0.00,Acu-Link.com,2013-01-25 18:05:00,
2013-01-25 13:20:00,16.9,4.3,30.09,SSE,157,3.7,-999.0,57,-99.99,,,0.00,Acu-Link.com,2013-01-25 18:20:00,
2013-01-25 13:35:00,17.2,4.2,30.07,ESE,112,2.7,-999.0,56,-99.99,,,0.00,Acu-Link.com,2013-01-25 18:35:00,
2013-01-25 13:50:00,17.1,5.3,30.06,SSE,157,2.2,-999.0,59,-99.99,,,0.00,Acu-Link.com,2013-01-25 18:50:00,
2013-01-25 14:05:00,17.6,6.8,30.05,East,90,3.2,-999.0,62,-99.99,,,0.00,Acu-Link.com,2013-01-25 19:05:00,
2013-01-25 14:20:00,17.6,7.9,30.05,SSE,157,2.2,-999.0,65,-99.99,,,0.00,Acu-Link.com,2013-01-25 19:20:00,
2013-01-25 14:35:00,17.2,8.5,30.04,ENE,67,3.7,-999.0,68,-99.99,,,0.00,Acu-Link.com,2013-01-25 19:35:00,
2013-01-25 14:50:00,16.9,8.5,30.03,ENE,67,3.7,-999.0,69,-99.99,,,0.00,Acu-Link.com,2013-01-25 19:50:00,
2013-01-25 15:05:00,16.3,9.8,30.03,SE,135,2.7,-999.0,75,-99.99,,,0.00,Acu-Link.com,2013-01-25 20:05:00,
2013-01-25 15:21:00,16.3,9.8,30.02,NE,45,1.7,-999.0,75,-99.99,,,0.00,Acu-Link.com,2013-01-25 20:21:00,
2013-01-25 15:36:00,16.7,10.5,30.02,SE,135,0.0,-999.0,76,-99.99,,,0.00,Acu-Link.com,2013-01-25 20:36:00,
2013-01-25 15:51:00,16.2,10.0,30.02,SSE,157,2.7,-999.0,76,-99.99,,,0.00,Acu-Link.com,2013-01-25 20:51:00,
2013-01-25 16:06:00,15.3,10.0,30.01,SSE,157,3.2,-999.0,79,-99.99,,,0.00,Acu-Link.com,2013-01-25 21:06:00,
2013-01-25 16:21:00,15.1,10.3,30.01,SE,135,0.0,-999.0,81,-99.99,,,0.00,Acu-Link.com,2013-01-25 21:21:00,
2013-01-25 16:36:00,15.3,10.3,30.00,SE,135,0.0,-999.0,80,-99.99,,,0.00,Acu-Link.com,2013-01-25 21:36:00,
2013-01-25 16:51:00,15.1,10.1,30.00,East,90,0.0,-999.0,80,-99.99,,,0.00,Acu-Link.com,2013-01-25 21:51:00,
2013-01-25 17:07:00,14.5,9.8,29.98,SE,135,0.0,-999.0,81,-99.99,,,0.00,Acu-Link.com,2013-01-25 22:07:00,
2013-01-25 17:22:00,14.4,9.7,29.98,SSE,157,0.0,-999.0,81,-99.99,,,0.00,Acu-Link.com,2013-01-25 22:22:00,
2013-01-25 17:37:00,14.0,9.3,29.97,ENE,67,0.0,-999.0,81,-99.99,,,0.00,Acu-Link.com,2013-01-25 22:37:00,
2013-01-25 17:52:00,13.6,9.1,29.97,SSE,157,0.0,-999.0,82,-99.99,,,0.00,Acu-Link.com,2013-01-25 22:52:00,
2013-01-25 18:07:00,13.3,9.1,29.95,SSE,157,0.0,-999.0,83,-99.99,,,0.00,Acu-Link.com,2013-01-25 23:07:00,
2013-01-25 18:22:00,12.9,8.7,29.95,SSE,157,0.0,-999.0,83,-99.99,,,0.00,Acu-Link.com,2013-01-25 23:22:00,
2013-01-25 18:37:00,12.2,8.6,29.95,SSW,202,0.0,-999.0,85,-99.99,,,0.00,Acu-Link.com,2013-01-25 23:37:00,
2013-01-25 18:52:00,11.5,8.1,29.95,NNE,22,0.0,-999.0,86,-99.99,,,0.00,Acu-Link.com,2013-01-25 23:52:00,
2013-01-25 19:07:00,10.9,7.8,29.94,East,90,0.0,-999.0,87,-99.99,,,0.00,Acu-Link.com,2013-01-26 00:07:00,
2013-01-25 19:23:00,10.4,7.1,29.93,ENE,67,0.0,-999.0,86,-99.99,,,0.00,Acu-Link.com,2013-01-26 00:23:00,
2013-01-25 19:38:00,9.7,6.9,29.93,ENE,67,0.0,-999.0,88,-99.99,,,0.00,Acu-Link.com,2013-01-26 00:38:00,
2013-01-25 19:53:00,9.1,6.3,29.93,ENE,67,2.2,-999.0,88,-99.99,,,0.00,Acu-Link.com,2013-01-26 00:53:00,
2013-01-25 20:08:00,8.6,5.8,29.93,NE,45,1.7,-999.0,88,-99.99,,,0.00,Acu-Link.com,2013-01-26 01:08:00,
2013-01-25 20:23:00,8.1,5.3,29.94,NNE,22,0.0,-999.0,88,-99.99,,,0.00,Acu-Link.com,2013-01-26 01:23:00,
2013-01-25 20:38:00,7.5,4.7,29.94,East,90,0.0,-999.0,88,-99.99,,,0.00,Acu-Link.com,2013-01-26 01:38:00,
2013-01-25 20:53:00,7.5,5.2,29.94,NNW,337,0.0,-999.0,90,-99.99,,,0.00,Acu-Link.com,2013-01-26 01:53:00,
2013-01-25 21:08:00,7.7,5.4,29.93,ESE,112,0.0,-999.0,90,-99.99,,,0.00,Acu-Link.com,2013-01-26 02:08:00,
2013-01-25 21:23:00,7.7,5.6,29.93,East,90,0.0,-999.0,91,-99.99,,,0.00,Acu-Link.com,2013-01-26 02:23:00,
2013-01-25 21:39:00,7.9,5.6,29.93,ENE,67,0.0,-999.0,90,-99.99,,,0.00,Acu-Link.com,2013-01-26 02:39:00,
2013-01-25 21:54:00,7.7,5.1,29.92,NE,45,0.0,-999.0,89,-99.99,,,0.00,Acu-Link.com,2013-01-26 02:54:00,
2013-01-25 22:09:00,7.5,4.7,29.93,ENE,67,0.0,-999.0,88,-99.99,,,0.00,Acu-Link.com,2013-01-26 03:09:00,
2013-01-25 22:24:00,7.0,4.5,29.93,ESE,112,0.0,-999.0,89,-99.99,,,0.00,Acu-Link.com,2013-01-26 03:24:00,
2013-01-25 22:39:00,6.3,3.5,29.94,ENE,67,0.0,-999.0,88,-99.99,,,0.00,Acu-Link.com,2013-01-26 03:39:00,
2013-01-25 22:54:00,6.1,3.6,29.95,East,90,0.0,-999.0,89,-99.99,,,0.00,Acu-Link.com,2013-01-26 03:54:00,
2013-01-25 23:09:00,6.1,3.8,29.95,NE,45,0.0,-999.0,90,-99.99,,,0.00,Acu-Link.com,2013-01-26 04:09:00,
2013-01-25 23:24:00,5.9,3.4,29.95,East,90,0.0,-999.0,89,-99.99,,,0.00,Acu-Link.com,2013-01-26 04:24:00,
2013-01-25 23:39:00,6.1,4.0,29.96,NE,45,0.0,-999.0,91,-99.99,,,0.00,Acu-Link.com,2013-01-26 04:39:00,
2013-01-25 23:55:00,6.6,4.1,29.96,East,90,0.0,-999.0,89,-99.99,,,0.00,Acu-Link.com,2013-01-26 04:55:00,